EW7806 Weather Reports


Display with metric or nautical units.
time (UTC)temp
F
wind
direction
speed
MPH
gust
MPH
rain 1hr
in
rain 24hr
in
rain mn
in
humidity
%
barometer
mb
20260506061613 52 70 0.0 3.0 0.00 0.00 0.00 85 1009.2
20260506061106 52 355 0.0 3.0 0.00 0.00 0.00 85 1009.2
20260506060607 52 6 0.0 1.0 0.00 0.00 0.00 85 1009.1
20260506060109 52 53 0.0 2.0 0.00 0.00 0.00 86 1009.2
20260506051024 51 263 0.0 3.0 0.00 0.00 0.00 86 1009.1
20260506050522 51 66 0.0 2.0 0.00 0.00 0.00 86 1009.2
20260506045023 51 62 0.0 2.0 0.00 0.00 0.00 86 1009.3
20260506044517 51 84 0.0 1.0 0.00 0.00 0.00 86 1009.2
20260506044011 50 57 0.0 1.0 0.00 0.00 0.00 86 1009.4
20260506043505 50 44 0.0 1.0 0.00 0.00 0.00 86 1009.3
20260506043001 50 70 0.0 1.0 0.00 0.00 0.00 86 1009.2
20260506041951 50 136 0.0 0.0 0.00 0.00 0.00 86 1009.2
20260506041436 50 68 0.0 1.0 0.00 0.00 0.00 86 1009.3
20260506040434 50 75 0.0 0.0 0.00 0.00 0.00 86 1009.3
20260506035932 50 75 0.0 0.0 0.00 0.00 0.00 86 1009.4
20260506035432 50 88 0.0 1.0 0.00 0.00 0.00 86 1009.4
20260506034934 50 259 0.0 2.0 0.00 0.00 0.00 86 1009.4
20260506034407 50 226 0.0 1.0 0.00 0.00 0.00 86 1009.4
20260506033906 50 236 0.0 1.0 0.00 0.00 0.00 86 1009.4
20260506033404 50 89 0.0 0.0 0.00 0.00 0.00 86 1009.4
20260506032851 50 91 0.0 1.0 0.00 0.00 0.00 86 1009.5
20260506032336 50 245 0.0 1.0 0.00 0.00 0.00 86 1009.5
20260506031323 50 93 0.0 1.0 0.00 0.00 0.00 86 1009.6
20260506030816 50 58 0.0 1.0 0.00 0.00 0.00 86 1009.6
20260506030308 50 49 0.0 0.0 0.00 0.00 0.00 86 1009.6
20260506025804 50 39 0.0 1.0 0.00 0.00 0.00 86 1009.7
20260506025306 50 137 0.0 1.0 0.00 0.00 0.00 86 1009.7
20260506024243 50 71 0.0 1.0 0.00 0.00 0.00 86 1009.7
20260506023739 50 239 0.0 1.0 0.00 0.00 0.00 85 1009.7
20260506023234 50 240 0.0 1.0 0.00 0.00 0.00 85 1009.7
20260506022724 50 51 0.0 0.0 0.00 0.00 0.00 85 1009.8
20260506022215 50 34 0.0 1.0 0.00 0.00 0.00 85 1009.7
20260506021709 50 260 0.0 1.0 0.00 0.00 0.00 85 1009.8
20260506021207 50 258 0.0 1.0 0.00 0.00 0.00 85 1009.8
20260506020710 50 110 0.0 1.0 0.00 0.00 0.00 86 1009.8
20260506020213 50 245 0.0 1.0 0.00 0.00 0.00 86 1009.9
20260506015637 50 113 0.0 1.0 0.00 0.00 0.00 86 1009.9
20260506015135 50 54 0.0 1.0 0.00 0.00 0.00 86 1009.9
20260506014609 49 61 0.0 1.0 0.00 0.00 0.00 87 1009.9
20260506014108 49 249 0.0 1.0 0.00 0.00 0.00 87 1010.0
20260506013619 49 271 0.0 1.0 0.00 0.00 0.00 87 1010.0
20260506013117 49 252 0.0 1.0 0.00 0.00 0.00 88 1010.1
20260506012606 49 39 0.0 1.0 0.00 0.00 0.00 88 1010.0
20260506012110 48 270 0.0 0.0 0.00 0.00 0.00 88 1010.0
20260506011610 48 270 0.0 0.0 0.00 0.00 0.00 88 1010.1
20260506011107 48 270 0.0 0.0 0.00 0.00 0.00 88 1010.1
20260506010607 48 270 0.0 0.0 0.00 0.00 0.00 87 1010.1
20260506010115 48 270 0.0 0.0 0.00 0.00 0.00 87 1010.1
20260506005605 48 270 0.0 0.0 0.00 0.00 0.00 87 1010.1
20260506004608 47 269 0.0 0.0 0.00 0.00 0.00 87 1010.2
20260506004105 47 269 0.0 0.0 0.00 0.00 0.00 87 1010.2
20260506003604 47 269 0.0 0.0 0.00 0.00 0.00 87 1010.3
20260506002536 47 269 0.0 0.0 0.00 0.00 0.00 87 1010.4
20260506002041 47 269 0.0 0.0 0.00 0.00 0.00 86 1010.4
20260506001023 47 269 0.0 0.0 0.00 0.00 0.00 87 1010.5
20260506000516 47 269 0.0 0.0 0.00 0.00 0.00 86 1010.6
20260506000023 48 269 0.0 0.0 0.00 0.00 0.00 86 1010.6
20260505234519 48 269 0.0 0.0 0.00 0.00 0.00 86 1010.8
20260505234013 48 269 0.0 0.0 0.00 0.00 0.00 86 1010.8
20260505233024 48 269 0.0 0.0 0.00 0.00 0.00 85 1010.9
20260505232520 48 269 0.0 0.0 0.00 0.00 0.00 85 1010.9
20260505231958 48 269 0.0 0.0 0.00 0.00 0.00 85 1010.9
20260505231452 48 269 0.0 0.0 0.00 0.00 0.00 85 1010.9
20260505230434 48 268 0.0 0.0 0.00 0.00 0.00 83 1011.0
20260505225936 48 268 0.0 0.0 0.00 0.00 0.00 83 1011.0
20260505224933 48 248 0.0 0.0 0.00 0.00 0.00 82 1010.9
20260505223939 49 248 0.0 0.0 0.00 0.00 0.00 82 1011.0
20260505223435 49 248 0.0 0.0 0.00 0.00 0.00 82 1011.1
20260505222919 49 248 0.0 0.0 0.00 0.00 0.00 82 1011.1
20260505222416 49 248 0.0 0.0 0.00 0.00 0.00 82 1011.1
20260505221915 49 248 0.0 0.0 0.00 0.00 0.00 82 1011.2
20260505221407 49 248 0.0 0.0 0.00 0.00 0.00 82 1011.1
20260505220915 49 248 0.0 0.0 0.00 0.00 0.00 82 1011.2
20260505215840 49 248 0.0 0.0 0.00 0.00 0.00 82 1011.3
20260505215332 49 248 0.0 0.0 0.00 0.00 0.00 82 1011.3
20260505214831 49 248 0.0 0.0 0.00 0.00 0.00 82 1011.4
20260505214314 49 249 0.0 0.0 0.00 0.00 0.00 82 1011.4
20260505213314 48 249 0.0 0.0 0.00 0.00 0.00 82 1011.5
20260505212803 48 249 0.0 0.0 0.00 0.00 0.00 82 1011.5
20260505212306 48 248 0.0 0.0 0.00 0.00 0.00 81 1011.5
20260505211803 48 249 0.0 0.0 0.00 0.00 0.00 81 1011.5
20260505211253 48 249 0.0 0.0 0.00 0.00 0.00 81 1011.5
20260505210744 49 249 0.0 0.0 0.00 0.00 0.00 80 1011.5
20260505210233 49 248 0.0 0.0 0.00 0.00 0.00 80 1011.4
20260505205713 49 248 0.0 1.0 0.00 0.00 0.00 80 1011.5
20260505205205 49 240 0.0 1.0 0.00 0.00 0.00 79 1011.5
20260505204709 49 240 0.0 1.0 0.00 0.00 0.00 79 1011.5
20260505204205 49 240 0.0 1.0 0.00 0.00 0.00 79 1011.4
20260505203704 49 240 0.0 1.0 0.00 0.00 0.00 79 1011.5
20260505202633 49 242 0.0 1.0 0.00 0.00 0.00 78 1011.5
20260505201608 49 203 0.0 1.0 0.00 0.00 0.00 78 1011.4
20260505201107 49 254 0.0 1.0 0.00 0.00 0.00 78 1011.3
20260505200610 50 114 0.0 1.0 0.00 0.00 0.00 78 1011.3
20260505195105 50 242 0.0 1.0 0.00 0.00 0.00 78 1011.2
20260505194607 50 49 0.0 1.0 0.00 0.00 0.00 78 1011.3
20260505194040 50 102 0.0 2.0 0.00 0.00 0.00 78 1011.3
20260505193035 51 51 0.0 1.0 0.00 0.00 0.00 77 1011.2
20260505192039 51 51 0.0 3.0 0.00 0.00 0.00 76 1011.2
20260505191533 51 246 0.0 3.0 0.00 0.00 0.00 76 1011.2
20260505191032 51 89 0.0 3.0 0.00 0.00 0.00 76 1011.2
20260505190526 51 108 0.0 1.0 0.00 0.00 0.00 75 1011.2
20260505185518 51 30 0.0 1.0 0.00 0.00 0.00 74 1011.1
20260505185030 52 91 0.0 2.0 0.00 0.00 0.00 74 1011.1
20260505184506 52 70 0.0 2.0 0.00 0.00 0.00 74 1011.1
20260505184007 52 32 0.0 2.0 0.00 0.00 0.00 74 1011.0
20260505183003 52 5 0.0 2.0 0.00 0.00 0.00 75 1011.1
20260505182457 52 46 0.0 2.0 0.00 0.00 0.00 74 1011.1
20260505181451 53 240 0.0 2.0 0.00 0.00 0.00 73 1011.1
20260505180433 53 48 0.0 1.0 0.00 0.00 0.00 72 1011.2
20260505175933 53 42 0.0 1.0 0.00 0.00 0.00 71 1011.1
20260505174933 53 46 0.0 2.0 0.00 0.00 0.00 71 1011.1
20260505174414 53 110 0.0 6.0 0.00 0.00 0.00 72 1011.1
20260505173917 53 60 0.0 6.0 0.00 0.00 0.00 71 1011.2
20260505173406 54 27 0.0 2.0 0.00 0.00 0.00 71 1011.1
20260505172905 54 323 0.0 3.0 0.00 0.00 0.00 71 1011.1
20260505172404 54 278 0.0 3.0 0.00 0.00 0.00 71 1011.1
20260505171907 54 65 0.0 2.0 0.00 0.00 0.00 69 1011.1
20260505171406 54 92 0.0 4.0 0.00 0.00 0.00 70 1011.2
20260505170904 55 215 0.0 4.0 0.00 0.00 0.00 70 1011.2
20260505170410 55 9 0.0 1.0 0.00 0.00 0.00 69 1011.1
20260505165905 55 3 0.0 3.0 0.00 0.00 0.00 69 1011.1
20260505164914 55 48 0.0 3.0 0.00 0.00 0.00 70 1011.2
20260505164405 55 314 0.0 2.0 0.00 0.00 0.00 70 1011.2
20260505163407 56 229 0.0 2.0 0.00 0.00 0.00 70 1011.2
20260505162907 56 62 0.0 3.0 0.00 0.00 0.00 70 1011.2
20260505162404 56 53 0.0 3.0 0.00 0.00 0.00 72 1011.2
20260505161332 57 49 0.0 3.0 0.00 0.00 0.00 70 1011.1
20260505160833 57 186 0.0 3.0 0.00 0.00 0.00 71 1011.1
20260505152802 58 206 0.0 2.0 0.00 0.00 0.00 69 1011.1
20260505151809 58 203 0.0 3.0 0.00 0.00 0.00 67 1011.2
20260505151306 58 53 0.0 2.0 0.00 0.00 0.00 66 1011.2
20260505150806 58 179 0.0 1.0 0.00 0.00 0.00 68 1011.2
20260505150306 57 59 0.0 4.0 0.00 0.00 0.00 65 1011.0
20260505130107 60 36 0.0 5.0 0.00 0.00 0.00 62 1011.7
20260505124534 61 256 0.0 4.0 0.00 0.00 0.00 61 1011.7
20260505124038 60 53 0.0 4.0 0.00 0.00 0.00 60 1011.6
20260505123534 61 262 0.0 3.0 0.00 0.00 0.00 60 1011.7
20260505123040 61 51 0.0 2.0 0.00 0.00 0.00 60 1011.7
20260505122530 61 246 0.0 4.0 0.00 0.00 0.00 60 1011.7
20260505121525 60 17 0.0 4.0 0.00 0.00 0.00 61 1011.9
20260505121023 60 91 0.0 4.0 0.00 0.00 0.00 60 1011.9
20260505120524 60 32 0.0 4.0 0.00 0.00 0.00 62 1011.8
20260505120019 60 56 0.0 5.0 0.00 0.00 0.00 62 1011.9
20260505115516 60 242 0.0 5.0 0.00 0.00 0.00 62 1011.9
20260505114519 60 302 0.0 8.0 0.00 0.00 0.00 61 1011.9
20260505113007 61 280 0.0 2.0 0.00 0.00 0.00 63 1012.1
20260505112503 60 229 0.0 2.0 0.00 0.00 0.00 64 1012.2
20260505111945 60 14 0.0 3.0 0.00 0.00 0.00 61 1012.1
20260505111432 60 253 0.0 3.0 0.00 0.00 0.00 61 1012.2
20260505110934 61 45 0.0 3.0 0.00 0.00 0.00 61 1012.2
20260505110435 60 66 0.0 2.0 0.00 0.00 0.00 62 1012.2
20260505101346 59 105 0.0 4.0 0.00 0.00 0.00 68 1012.5
20260505100840 58 24 0.0 2.0 0.00 0.00 0.00 65 1012.5
20260505100339 58 45 0.0 2.0 0.00 0.00 0.00 67 1012.4
20260505095816 58 278 0.0 3.0 0.00 0.00 0.00 65 1012.5
20260505094814 59 58 0.0 2.0 0.00 0.00 0.00 65 1012.4
20260505094304 59 47 0.0 2.0 0.00 0.00 0.00 65 1012.3
20260505093807 59 37 0.0 2.0 0.00 0.00 0.00 65 1012.3
20260505093305 59 46 0.0 2.0 0.00 0.00 0.00 66 1012.2
20260505092734 58 77 0.0 5.0 0.00 0.00 0.00 65 1012.2
20260505092233 58 310 0.0 5.0 0.00 0.00 0.00 67 1012.1
20260505091209 58 319 0.0 5.0 0.00 0.00 0.00 69 1012.2
20260505090708 57 300 0.0 4.0 0.00 0.00 0.00 66 1012.2
20260505090211 57 46 0.0 1.0 0.00 0.00 0.00 65 1012.2
20260505085705 57 42 0.0 5.0 0.00 0.00 0.00 67 1012.3
20260505085204 57 303 0.0 5.0 0.00 0.00 0.00 67 1012.3
20260505084705 57 61 0.0 5.0 0.00 0.00 0.00 68 1012.4
20260505084145 57 252 0.0 5.0 0.00 0.00 0.00 68 1012.5
20260505083632 57 29 0.0 3.0 0.00 0.00 0.00 67 1012.4
20260505083133 56 39 0.0 2.0 0.00 0.00 0.00 70 1012.5
20260505082611 56 22 0.0 2.0 0.00 0.00 0.00 69 1012.6
20260505081605 56 254 0.0 2.0 0.00 0.00 0.00 70 1012.6
20260505081105 56 15 0.0 2.0 0.00 0.00 0.00 71 1012.6
20260505080106 55 324 0.0 2.0 0.00 0.00 0.00 70 1012.6
20260505075603 55 180 0.0 2.0 0.00 0.00 0.00 71 1012.6
20260505075106 55 326 0.0 2.0 0.00 0.00 0.00 71 1012.6
20260505074606 55 301 0.0 1.0 0.00 0.00 0.00 71 1012.8
20260505074039 54 241 0.0 1.0 0.00 0.00 0.00 73 1012.9
20260505073535 54 223 0.0 1.0 0.00 0.00 0.00 72 1013.0
20260505072523 54 21 0.0 2.0 0.00 0.00 0.00 73 1012.9
20260505072028 54 229 0.0 2.0 0.00 0.00 0.00 75 1012.9
20260505071526 54 57 0.0 2.0 0.00 0.00 0.00 75 1012.8
20260505071020 53 69 0.0 1.0 0.00 0.00 0.00 77 1012.8
20260505070518 53 255 0.0 1.0 0.00 0.00 0.00 77 1012.8